PBO Station Position Time Series. Reference Frame : NAM14
Format Version,1.1.1
4-character ID,BSRY
Station name,BSRY_SCGN_CS1998
Begin Date, 1998-11-11
End Date, 2023-06-26
Release Date, 2023-06-27
Reference position, 34.9186120183 North Latitude, -117.0119935636 East Longitude, 613.49143 meters elevation,
Date, North (mm), East (mm), Vertical (mm), North Std. Deviation (mm), East Std. Deviation (mm),              Vertical Std. Deviation (mm), Quality,
1998-11-11,0.00, 0.00, 0.00, 2.22, 1.91, 8.43, repro,
1998-11-12,-0.18, -0.75, 10.79, 2.19, 1.83, 8.10, repro,
1998-11-13,0.45, -0.03, 4.16, 2.28, 1.96, 8.36, repro,
1998-11-14,-0.19, 0.80, 7.60, 2.17, 1.82, 8.07, repro,
1998-11-15,-0.74, -0.25, 8.60, 2.18, 1.82, 8.13, repro,
1998-11-16,0.06, -0.39, 14.23, 2.17, 1.80, 8.08, repro,
1998-11-17,-1.44, -0.12, 7.74, 2.17, 1.80, 8.13, repro,
1998-11-18,-0.30, -0.05, 5.16, 2.10, 1.76, 7.87, repro,
1998-11-19,-0.67, -0.39, 7.27, 2.17, 1.82, 8.11, repro,
1998-11-20,-0.07, 0.20, 4.65, 2.07, 1.76, 7.77, repro,
1998-11-21,0.16, 1.01, 11.83, 2.43, 2.09, 9.28, repro,
1998-11-22,1.79, -0.04, 6.59, 2.11, 1.79, 7.90, repro,
1998-11-23,-0.12, 0.38, 9.48, 2.11, 1.79, 7.92, repro,
1998-11-24,-1.22, -1.18, 1.33, 2.07, 1.76, 7.71, repro,
1998-11-25,-0.11, 0.05, 7.53, 2.07, 1.76, 7.77, repro,
1998-11-26,0.33, -0.53, 5.62, 2.17, 1.88, 8.12, repro,
1998-11-27,-0.24, -1.99, 13.76, 2.17, 1.81, 8.09, repro,
1998-11-28,-0.68, -0.56, 9.64, 2.15, 1.79, 8.04, repro,
1998-11-29,-4.98, -2.01, 0.57, 2.13, 1.77, 8.01, repro,
1998-11-30,1.02, 0.55, 9.78, 2.22, 1.85, 8.13, repro,
1998-12-01,1.12, 0.48, 5.10, 2.19, 1.85, 8.06, repro,
1998-12-02,1.20, -0.19, 6.88, 2.13, 1.78, 8.01, repro,
1998-12-03,0.88, -0.89, 8.51, 2.23, 1.88, 8.28, repro,
1998-12-04,-0.88, 0.26, 6.81, 2.29, 1.93, 8.42, repro,
1998-12-05,-2.32, 0.78, 1.93, 2.21, 1.82, 8.07, repro,
1998-12-06,-0.17, -0.19, 2.12, 2.17, 1.93, 8.38, repro,
1998-12-07,0.74, -0.03, 9.92, 2.17, 1.92, 8.22, repro,
1998-12-08,1.87, 1.49, -3.31, 2.56, 2.13, 9.32, repro,
1998-12-09,0.39, -2.06, -1.51, 2.13, 1.89, 8.14, repro,
1998-12-10,0.49, -0.43, -2.50, 2.14, 1.96, 8.30, repro,
1998-12-11,-0.54, 1.35, 3.56, 2.38, 2.22, 9.36, repro,
1998-12-12,-0.42, -0.29, 1.08, 2.22, 1.99, 8.41, repro,
1998-12-13,1.06, -0.33, 0.82, 2.13, 1.87, 8.07, repro,
1998-12-14,0.53, -1.00, 0.03, 2.28, 1.94, 8.81, repro,
1998-12-15,1.05, 0.16, -0.28, 2.14, 1.86, 8.25, repro,
1998-12-16,-1.95, -2.05, -2.46, 2.14, 1.89, 8.11, repro,
1998-12-17,0.24, -0.23, -0.26, 2.03, 1.76, 7.75, repro,
1998-12-18,-0.93, -0.96, 4.20, 2.20, 1.89, 8.40, repro,
1998-12-19,-0.37, -2.84, 1.87, 2.09, 1.84, 7.96, repro,
1998-12-20,-1.64, -3.55, 14.37, 2.18, 1.88, 8.28, repro,
1998-12-21,0.55, -0.93, 4.24, 2.25, 2.04, 8.54, repro,
1998-12-22,-0.20, -0.01, -1.54, 2.24, 1.94, 8.52, repro,
1998-12-23,-1.05, 0.52, -2.45, 2.13, 1.89, 8.07, repro,
1998-12-24,-0.89, 2.38, -3.21, 2.28, 2.00, 8.62, repro,
1998-12-25,-0.59, 1.38, -5.08, 2.41, 2.19, 9.44, repro,
1998-12-26,0.58, -0.38, 3.21, 2.15, 1.90, 8.14, repro,
1998-12-27,0.01, -0.23, -6.93, 2.25, 2.06, 8.57, repro,
1998-12-28,-0.17, -1.91, 2.41, 2.28, 2.04, 8.89, repro,
1998-12-29,-0.97, -0.21, -10.70, 2.16, 1.88, 8.40, repro,
1998-12-30,0.16, 0.07, -0.63, 2.48, 2.30, 9.66, repro,
1998-12-31,-0.36, -1.67, 5.65, 2.18, 1.93, 8.26, repro,
1999-01-01,0.68, 0.66, -2.18, 2.23, 1.95, 8.61, repro,
1999-01-02,-0.31, 0.61, 5.67, 2.35, 2.12, 8.92, repro,
1999-01-03,-1.04, 0.69, -3.33, 2.12, 1.87, 8.15, repro,
1999-01-04,0.30, 0.70, -6.00, 2.26, 1.94, 8.59, repro,
1999-01-05,-1.00, 0.20, 2.25, 2.20, 1.97, 8.52, repro,
1999-01-06,0.25, 0.71, -0.57, 2.16, 1.95, 8.73, repro,
1999-01-07,-1.01, -1.11, 4.55, 2.14, 1.86, 8.20, repro,
1999-01-08,0.38, 0.80, 1.92, 2.05, 1.80, 7.89, repro,
1999-01-09,-1.17, -0.81, -2.73, 2.16, 1.85, 8.28, repro,
1999-01-10,-0.00, -0.79, -6.66, 2.20, 1.89, 8.63, repro,
1999-01-11,0.22, 1.89, 0.73, 2.25, 1.99, 9.03, repro,
1999-01-12,0.71, -0.90, 4.37, 2.22, 2.00, 8.46, repro,
1999-01-13,0.32, -0.24, 2.05, 2.28, 1.90, 8.81, repro,
1999-01-14,-0.59, 0.48, 5.08, 2.28, 1.86, 8.55, repro,
1999-01-15,-0.27, -0.90, 4.18, 2.20, 1.91, 8.51, repro,
1999-01-16,1.22, 0.53, -1.65, 2.10, 1.81, 8.02, repro,
1999-01-17,-0.03, -1.22, -0.37, 2.13, 1.88, 8.36, repro,
1999-01-18,-1.06, -0.60, 1.28, 2.06, 1.79, 7.82, repro,
1999-01-19,0.03, -0.51, -5.20, 2.06, 1.76, 7.73, repro,
1999-01-20,-1.09, 1.97, -5.04, 2.19, 1.84, 8.38, repro,
1999-01-21,-3.97, -0.48, 1.71, 2.24, 1.91, 8.65, repro,
1999-01-22,-0.31, -0.75, -3.37, 2.13, 1.87, 8.29, repro,
1999-01-23,0.23, 0.14, 13.45, 2.25, 1.93, 8.78, repro,
1999-01-24,1.31, -0.79, -7.26, 2.26, 1.88, 8.88, repro,
1999-01-25,-0.30, -1.00, 3.88, 2.24, 1.88, 8.66, repro,
1999-01-26,-1.11, -0.69, 1.09, 2.43, 2.04, 10.37, repro,
1999-01-27,-0.38, 0.24, -3.71, 2.21, 1.82, 8.36, repro,
1999-01-28,0.31, -1.17, -5.54, 2.12, 1.83, 8.23, repro,
1999-01-29,1.45, -0.07, 6.85, 2.26, 1.88, 8.78, repro,
1999-01-30,0.33, -0.20, 3.79, 2.38, 2.07, 9.33, repro,
1999-01-31,0.17, 0.52, 3.66, 2.27, 2.01, 8.99, repro,
1999-02-01,0.75, -0.54, 1.70, 2.06, 1.76, 7.83, repro,
1999-02-02,1.91, 0.86, 0.76, 2.23, 1.85, 8.74, repro,
1999-02-03,1.95, -0.05, 9.21, 2.34, 1.89, 9.17, repro,
1999-02-04,0.30, 0.41, 14.69, 2.27, 1.94, 9.06, repro,
1999-02-05,0.26, -1.25, 2.31, 2.17, 1.84, 8.45, repro,
1999-02-06,1.48, -1.03, 0.48, 2.29, 1.98, 9.20, repro,
1999-02-07,1.78, -1.63, 3.62, 2.22, 1.86, 8.60, repro,
1999-02-08,-1.57, -1.50, 0.60, 2.08, 1.83, 8.09, repro,
1999-02-09,0.88, -1.63, 9.50, 2.29, 1.92, 9.00, repro,
1999-02-10,-1.29, 1.00, -1.46, 2.17, 1.86, 8.49, repro,
1999-02-11,0.79, 0.65, -5.87, 2.28, 1.90, 8.82, repro,
1999-02-12,0.65, 0.72, -11.48, 2.34, 1.92, 9.26, repro,
1999-02-13,0.24, 0.16, -12.58, 2.15, 1.82, 8.07, repro,
1999-02-14,0.27, 0.36, -8.14, 2.24, 1.89, 8.66, repro,
1999-02-15,-0.72, -1.15, 0.30, 2.25, 1.88, 8.75, repro,
1999-02-16,-1.52, 0.21, -1.23, 2.14, 1.90, 8.58, repro,
1999-02-17,-0.27, -1.57, 4.40, 2.19, 1.82, 8.36, repro,
1999-02-18,-1.11, 0.02, 5.74, 2.16, 1.88, 8.38, repro,
1999-02-19,-0.12, 0.59, 2.51, 2.21, 1.88, 8.60, repro,
1999-02-20,-0.38, 0.67, 3.21, 2.16, 1.86, 8.33, repro,
1999-02-21,-1.56, -1.50, 0.42, 2.10, 1.79, 7.98, repro,
1999-02-22,-0.19, -0.73, -0.80, 2.13, 1.79, 8.04, repro,
1999-02-23,-0.60, -0.26, -6.42, 2.05, 1.78, 7.75, repro,
1999-02-24,-0.63, 0.14, -3.84, 2.03, 1.76, 7.68, repro,
1999-02-25,-0.48, 0.93, 3.47, 2.05, 1.78, 7.78, repro,
1999-02-26,-0.06, 0.64, -2.93, 2.13, 1.80, 7.98, repro,
1999-02-27,-0.12, 0.82, 2.87, 2.13, 1.80, 8.12, repro,
1999-02-28,0.27, 0.05, 4.10, 2.04, 1.77, 7.72, repro,
1999-03-01,-0.40, -0.95, -4.86, 2.14, 1.83, 8.20, repro,
1999-03-02,-0.36, 0.73, -8.32, 2.12, 1.79, 8.07, repro,
1999-03-03,-0.98, 2.32, -8.43, 2.07, 1.79, 7.90, repro,
1999-03-04,-0.38, 0.83, 1.80, 2.08, 1.78, 7.88, repro,
1999-03-05,-1.58, -0.79, -0.48, 2.04, 1.77, 7.76, repro,
1999-03-06,-1.75, -0.87, -10.41, 2.09, 1.87, 8.05, repro,
1999-03-07,-2.16, -0.65, -7.87, 2.05, 1.79, 7.83, repro,
1999-03-08,-0.22, 0.15, -6.52, 2.05, 1.76, 7.77, repro,
1999-03-09,0.49, -0.69, 0.63, 2.07, 1.79, 7.88, repro,
1999-03-10,-0.66, -0.42, -4.18, 2.08, 1.84, 7.93, repro,
1999-03-11,-1.10, -0.37, -3.14, 2.04, 1.78, 7.76, repro,
1999-03-12,-1.69, 0.66, -9.81, 2.13, 1.81, 8.01, repro,
1999-03-13,0.48, 0.44, -2.78, 2.07, 1.82, 7.88, repro,
1999-03-14,0.76, 0.20, -8.77, 2.04, 1.75, 7.68, repro,
1999-03-15,-0.58, 0.80, 0.36, 2.18, 1.90, 8.34, repro,
1999-03-16,-0.86, 1.51, -1.62, 2.19, 1.90, 8.34, repro,
1999-03-17,0.61, 0.52, -3.05, 2.10, 1.84, 8.07, repro,
1999-03-18,-0.88, -1.11, -5.36, 2.30, 2.07, 8.85, repro,
1999-03-19,0.74, 0.40, -17.87, 2.18, 1.91, 8.28, repro,
1999-03-20,-1.35, 0.54, -4.28, 2.19, 1.91, 8.44, repro,
1999-03-21,0.27, 0.17, -1.10, 3.01, 2.59, 11.98, repro,
1999-03-22,-0.91, -0.92, 1.20, 3.55, 3.34, 14.48, repro,
1999-03-23,0.05, -0.38, -2.34, 2.16, 1.91, 8.34, repro,
1999-03-24,-0.81, -1.01, -3.90, 2.35, 2.05, 9.17, repro,
1999-03-25,0.33, 1.01, 0.47, 2.40, 2.09, 9.44, repro,
1999-03-26,0.48, 0.43, -4.24, 2.24, 1.97, 8.63, repro,
1999-03-27,0.18, 1.21, -6.17, 2.13, 1.89, 8.21, repro,
1999-03-28,-0.21, -0.60, -10.13, 2.24, 1.98, 8.64, repro,
1999-03-29,0.49, -0.27, -3.71, 2.28, 2.00, 8.94, repro,
1999-03-30,-0.89, -0.71, -2.26, 2.27, 1.93, 8.78, repro,
1999-03-31,0.59, -2.58, -6.62, 2.27, 1.90, 8.68, repro,
1999-04-01,-0.14, -0.01, 0.50, 2.15, 1.86, 8.11, repro,
1999-04-02,-0.60, -0.41, -10.07, 2.26, 1.87, 8.44, repro,
1999-04-03,-0.67, 0.25, -6.90, 2.11, 1.80, 7.94, repro,
1999-04-04,-1.74, -1.03, 1.54, 2.12, 1.80, 7.95, repro,
1999-04-05,-1.42, -0.87, 2.94, 2.37, 2.09, 9.05, repro,
1999-04-06,-0.57, 1.76, -5.26, 2.14, 1.78, 7.95, repro,
1999-04-07,0.10, -1.89, -2.43, 2.08, 1.80, 7.94, repro,
1999-04-08,0.25, -0.09, -1.93, 2.05, 1.77, 7.81, repro,
1999-04-09,0.77, -0.36, -4.54, 2.10, 1.88, 8.20, repro,
1999-04-10,-0.94, 0.06, 0.42, 2.03, 1.76, 7.79, repro,
1999-04-11,-0.15, 0.10, 0.95, 2.03, 1.78, 7.84, repro,
1999-04-12,0.55, 0.57, -4.93, 2.04, 1.76, 7.77, repro,
1999-04-13,-0.02, 0.03, -3.00, 2.27, 1.98, 8.67, repro,
1999-04-14,-0.36, 0.79, -5.74, 2.04, 1.77, 7.89, repro,
1999-04-15,0.74, -0.04, -2.71, 2.03, 1.76, 7.83, repro,
1999-04-16,0.51, 0.79, -2.21, 2.05, 1.81, 7.99, repro,
1999-04-17,0.26, 0.51, -1.63, 2.10, 1.77, 8.02, repro,
1999-04-18,1.28, 0.81, -4.10, 2.03, 1.75, 7.79, repro,
1999-04-19,0.15, -0.17, -3.45, 2.03, 1.76, 7.85, repro,
1999-04-20,0.62, -2.12, 3.98, 2.12, 1.79, 8.20, repro,
1999-04-21,-1.15, -0.99, 11.13, 2.05, 1.76, 7.97, repro,
1999-04-22,0.05, 0.17, 7.61, 2.08, 1.76, 8.02, repro,
1999-04-23,-0.46, -1.03, 4.83, 2.07, 1.77, 7.86, repro,
1999-04-24,1.77, 0.38, -0.93, 2.06, 1.75, 7.80, repro,
1999-04-25,-1.23, 0.48, 1.70, 2.09, 1.80, 8.04, repro,
1999-04-26,-0.74, 0.47, 1.88, 2.04, 1.74, 7.74, repro,
1999-04-27,-0.49, 0.95, 13.87, 2.05, 1.78, 7.84, repro,
1999-04-28,-0.88, -0.25, 4.40, 2.06, 1.83, 7.89, repro,
1999-04-29,-0.43, -0.90, 6.41, 2.05, 1.82, 7.87, repro,
1999-04-30,0.05, -0.38, 2.28, 2.06, 1.84, 7.99, repro,
1999-05-01,-1.15, -1.11, 7.62, 2.12, 1.88, 8.17, repro,
1999-05-02,-0.19, -0.35, 6.38, 2.08, 1.82, 7.98, repro,
1999-05-03,0.44, -0.66, 11.62, 2.10, 1.90, 8.23, repro,
1999-05-04,-0.46, -0.20, 18.95, 2.07, 1.87, 8.09, repro,
1999-05-05,0.09, -0.21, 11.54, 2.15, 1.94, 8.32, repro,
1999-05-06,0.06, -0.25, 3.99, 2.05, 1.82, 7.93, repro,
1999-05-07,0.62, -1.33, 9.52, 2.06, 1.74, 7.78, repro,
1999-05-08,-1.33, -1.61, 8.56, 2.08, 1.83, 7.96, repro,
1999-05-09,-0.18, -0.54, 4.91, 2.07, 1.82, 7.89, repro,
1999-05-10,-0.05, 0.98, 3.91, 2.05, 1.77, 7.89, repro,
1999-05-11,-0.61, -0.52, 0.97, 2.07, 1.84, 8.03, repro,
1999-05-12,0.98, 0.18, 0.34, 2.06, 1.82, 7.93, repro,
1999-05-13,-0.40, -1.36, 11.45, 2.06, 1.83, 7.98, repro,
1999-05-14,-1.75, -0.57, 6.46, 2.06, 1.83, 8.00, repro,
1999-05-15,0.04, -0.34, 6.10, 2.06, 1.83, 7.96, repro,
1999-05-16,-0.36, 0.01, 2.04, 2.07, 1.83, 8.02, repro,
1999-05-17,0.43, -0.72, 5.74, 2.10, 1.87, 8.13, repro,
1999-05-18,-0.29, -0.94, 3.66, 2.25, 1.90, 8.70, repro,
1999-05-19,-0.03, -0.80, 1.52, 2.05, 1.76, 7.95, repro,
1999-05-20,-0.19, -1.21, 4.72, 2.09, 1.83, 8.04, repro,
1999-05-21,-0.23, -0.13, 8.43, 2.08, 1.83, 8.02, repro,
1999-05-22,-0.83, 1.39, 6.93, 2.04, 1.77, 7.82, repro,
1999-05-23,0.16, -0.01, 3.03, 2.09, 1.83, 8.00, repro,
1999-05-24,0.32, 0.80, 2.03, 2.05, 1.81, 7.89, repro,
1999-05-25,0.64, -0.00, 10.08, 2.02, 1.75, 7.79, repro,
1999-05-26,-1.21, 0.40, 4.59, 2.05, 1.82, 7.89, repro,
1999-05-27,-1.05, 1.41, 4.64, 2.03, 1.79, 7.88, repro,
1999-05-28,0.35, 0.24, 8.22, 2.11, 1.77, 8.11, repro,
1999-05-29,-0.22, 0.39, 5.94, 2.01, 1.75, 7.72, repro,
1999-05-30,1.06, -0.13, -2.72, 2.01, 1.74, 7.70, repro,
1999-05-31,-0.05, -1.03, 6.85, 2.03, 1.75, 7.79, repro,
1999-06-01,1.31, -0.90, 16.83, 2.08, 1.78, 7.93, repro,
1999-06-02,0.64, -0.63, 14.29, 2.05, 1.77, 7.83, repro,
1999-06-03,-1.93, 0.26, 26.36, 2.17, 1.91, 8.24, repro,
1999-06-04,0.17, -1.69, 11.51, 2.02, 1.77, 7.75, repro,
1999-06-05,1.40, -0.80, 19.10, 2.03, 1.78, 7.86, repro,
1999-06-06,2.36, 0.01, 6.33, 2.15, 1.89, 8.28, repro,
1999-06-07,1.15, -0.56, 15.51, 2.11, 1.84, 8.08, repro,
1999-06-08,0.63, -0.22, 6.38, 2.04, 1.77, 7.84, repro,
1999-06-09,-0.92, 0.38, 16.12, 2.02, 1.78, 7.83, repro,
1999-06-10,0.83, -0.50, 23.83, 2.05, 1.78, 7.92, repro,
1999-06-11,0.75, -0.23, 11.40, 2.09, 1.79, 8.14, repro,
1999-06-12,1.61, -0.59, 12.60, 2.03, 1.77, 7.84, repro,
1999-06-13,0.84, -0.19, 10.65, 2.08, 1.80, 7.93, repro,
1999-06-14,-0.53, -0.43, 6.41, 2.25, 1.83, 8.62, repro,
1999-06-15,0.30, -0.70, 11.44, 2.08, 1.80, 7.99, repro,
1999-06-16,0.19, 0.29, 9.59, 2.02, 1.75, 7.78, repro,
1999-06-17,1.50, -0.48, 6.77, 2.06, 1.77, 7.94, repro,
1999-06-18,1.01, -1.45, 10.94, 2.03, 1.76, 7.82, repro,
1999-06-19,-0.28, -0.56, 13.10, 2.07, 1.78, 7.91, repro,
1999-06-20,0.95, -1.68, 10.07, 2.05, 1.80, 7.95, repro,
1999-06-21,0.47, -0.96, 15.15, 2.09, 1.77, 8.09, repro,
1999-06-22,-5.59, -2.22, 8.91, 5.37, 4.76, 22.02, repro,
1999-06-23,-0.18, -0.35, 12.65, 2.04, 1.75, 7.78, repro,
1999-06-24,-0.88, 0.70, 15.08, 2.05, 1.74, 7.75, repro,
1999-06-25,-0.79, -1.69, 22.40, 2.18, 1.84, 8.23, repro,
1999-06-26,-0.11, -2.32, 17.82, 2.13, 1.81, 8.12, repro,
1999-06-27,0.25, -1.35, 27.04, 2.15, 1.79, 8.41, repro,
1999-06-28,-0.31, -0.64, 8.06, 2.07, 1.79, 7.88, repro,
1999-06-29,-2.12, 0.47, 17.40, 2.30, 1.96, 8.79, repro,
1999-06-30,-0.13, -0.67, 18.51, 2.25, 1.86, 8.59, repro,
1999-07-01,1.32, 0.10, 13.28, 2.33, 1.92, 9.09, repro,
1999-07-02,0.61, -0.84, 19.32, 2.14, 1.80, 8.39, repro,
1999-07-03,1.07, -1.06, 18.81, 2.15, 1.80, 8.40, repro,
1999-07-04,-1.03, 0.28, 14.43, 2.10, 1.78, 8.11, repro,
1999-07-05,-0.16, -1.30, 14.69, 2.09, 1.76, 8.02, repro,
1999-07-06,0.34, 0.31, 25.28, 2.13, 1.84, 8.28, repro,
1999-07-07,0.64, -0.04, 4.78, 2.93, 2.57, 11.96, repro,
1999-07-08,3.38, -2.66, 23.26, 2.15, 1.80, 8.20, repro,
1999-07-09,0.45, -0.66, 15.76, 2.13, 1.78, 8.11, repro,
1999-07-10,1.64, -0.08, 12.98, 2.20, 1.86, 8.42, repro,
1999-07-11,-0.11, 4.81, 6.14, 2.17, 1.84, 8.24, repro,
1999-07-12,3.82, 0.83, 11.41, 2.12, 1.83, 8.04, repro,
1999-07-13,-0.41, 0.10, 3.42, 2.20, 1.81, 8.43, repro,
1999-07-14,-0.07, 2.75, 20.84, 2.35, 1.90, 8.82, repro,
1999-07-15,0.69, -1.24, 8.49, 2.09, 1.80, 8.17, repro,
1999-07-16,-0.24, -1.90, 13.45, 2.17, 1.80, 8.48, repro,
1999-07-17,-0.78, 0.23, 10.22, 2.09, 1.77, 8.11, repro,
1999-07-18,1.02, -1.17, 12.41, 2.12, 1.76, 8.09, repro,
1999-07-19,2.79, -1.31, 1.16, 2.20, 1.81, 8.46, repro,
1999-07-20,0.69, -2.44, 19.15, 2.17, 1.78, 8.33, repro,
1999-07-21,1.23, 0.33, 11.39, 2.07, 1.82, 8.00, repro,
1999-07-22,0.51, -1.13, 13.34, 2.17, 1.86, 8.33, repro,
1999-07-23,1.85, 0.61, 12.67, 2.18, 1.79, 8.38, repro,
1999-07-24,1.02, -0.69, 17.00, 2.15, 1.91, 8.35, repro,
1999-07-25,0.97, -0.01, 11.92, 2.11, 1.77, 8.05, repro,
1999-07-26,-0.71, -1.25, 11.33, 2.29, 1.96, 8.70, repro,
1999-07-27,-0.90, -0.41, 17.80, 2.12, 1.75, 8.04, repro,
1999-07-28,0.17, -0.69, 12.99, 2.03, 1.75, 7.82, repro,
1999-07-29,1.48, -0.18, 20.59, 2.09, 1.80, 7.96, repro,
1999-07-30,1.77, -0.21, 22.28, 2.11, 1.85, 8.18, repro,
1999-07-31,0.09, -0.06, 8.00, 2.14, 1.87, 8.20, repro,
1999-08-01,-0.47, -0.97, 7.51, 2.01, 1.73, 7.67, repro,
1999-08-02,1.24, 0.35, 0.44, 2.13, 1.82, 8.29, repro,
1999-08-03,-0.63, 1.80, 6.71, 2.07, 1.77, 7.87, repro,
1999-08-04,-1.15, 0.71, 6.55, 2.08, 1.76, 8.11, repro,
1999-08-05,-0.12, 1.02, 8.59, 2.16, 1.83, 8.18, repro,
1999-08-06,-1.26, -0.34, 4.18, 2.19, 1.86, 8.30, repro,
1999-08-07,-1.44, -0.69, 10.06, 2.04, 1.75, 7.84, repro,
1999-08-08,-0.34, -0.14, 1.01, 2.03, 1.73, 7.78, repro,
1999-08-09,-2.45, -3.44, 11.81, 2.15, 1.87, 8.19, repro,
1999-08-10,1.36, -1.86, 10.69, 2.11, 1.86, 8.07, repro,
1999-08-11,-0.94, 0.08, 6.78, 2.08, 1.81, 7.95, repro,
1999-08-12,0.64, -0.51, 1.74, 2.14, 1.80, 8.27, repro,
1999-08-13,0.56, -0.25, 3.78, 2.01, 1.72, 7.72, repro,
1999-08-14,-0.57, 0.38, 9.84, 2.03, 1.73, 7.77, repro,
1999-08-15,-1.76, 0.68, 3.40, 2.24, 1.88, 8.53, repro,
1999-08-16,0.11, -0.48, 5.67, 2.02, 1.75, 7.81, repro,
1999-08-17,0.59, 0.96, 11.05, 2.08, 1.81, 7.96, repro,
1999-08-18,0.31, -0.91, 0.37, 2.01, 1.73, 7.76, repro,
1999-08-19,0.06, -0.94, 13.67, 2.01, 1.74, 7.77, repro,
1999-08-20,0.31, 1.47, 6.22, 2.16, 1.99, 8.32, repro,
1999-08-21,-1.91, -0.49, 12.59, 2.09, 1.80, 7.98, repro,
1999-08-22,0.55, -0.20, 5.25, 2.04, 1.80, 7.95, repro,
1999-08-23,1.24, -0.10, 5.46, 2.20, 1.80, 8.20, repro,
1999-08-24,-0.94, 1.81, 6.22, 2.14, 1.81, 8.17, repro,
1999-08-25,-1.31, -0.35, 11.79, 2.12, 1.79, 7.99, repro,
1999-08-26,1.70, -1.75, 8.05, 2.23, 1.80, 8.57, repro,
1999-08-27,0.34, 0.05, 18.24, 2.10, 1.85, 8.02, repro,
1999-08-28,-0.55, -0.11, 14.66, 2.11, 1.85, 8.07, repro,
1999-08-29,-1.05, -1.33, 13.83, 2.16, 1.88, 9.29, repro,
1999-08-30,-2.01, -0.71, 17.00, 2.15, 1.88, 8.16, repro,
1999-08-31,0.47, -0.04, 6.93, 2.13, 1.89, 8.18, repro,
1999-09-01,-0.30, -1.43, 20.53, 2.32, 1.92, 8.73, repro,
1999-09-02,-0.27, -2.11, 10.42, 2.13, 1.84, 8.09, repro,
1999-09-03,-0.31, -0.47, 4.93, 2.21, 1.87, 8.32, repro,
1999-09-04,1.15, -0.12, 8.50, 2.20, 1.87, 8.35, repro,
1999-09-05,0.91, 1.09, 5.57, 2.05, 1.77, 7.80, repro,
1999-09-06,-0.12, 0.46, 10.71, 2.19, 1.86, 8.28, repro,
1999-09-07,1.88, 0.16, 7.67, 2.47, 1.93, 9.44, repro,
1999-09-08,0.18, -0.81, 7.91, 2.35, 1.89, 8.98, repro,
1999-09-09,0.07, 1.52, 2.66, 2.23, 1.80, 8.18, repro,
1999-09-10,2.33, -0.03, 10.12, 2.19, 1.86, 8.19, repro,
1999-09-11,1.41, 1.15, 3.79, 2.31, 1.93, 8.62, repro,
1999-09-12,-1.73, 0.23, 7.14, 2.23, 1.80, 8.18, repro,
1999-09-13,-1.29, -0.57, 5.12, 2.15, 1.78, 8.00, repro,
1999-09-14,1.72, -2.62, 3.25, 2.16, 1.79, 8.04, repro,
1999-09-15,0.70, 1.24, 8.19, 2.24, 1.86, 8.38, repro,
1999-09-16,1.41, -0.78, 10.60, 2.14, 1.80, 8.03, repro,
1999-09-17,1.27, -3.27, 21.05, 2.31, 1.91, 8.65, repro,
1999-09-18,2.49, -0.84, 11.69, 2.46, 2.13, 9.19, repro,
1999-09-19,-1.35, 1.09, 11.01, 2.13, 1.81, 8.01, repro,
1999-09-20,0.18, -0.42, 6.08, 2.26, 1.91, 8.34, repro,
1999-09-21,-0.09, 1.34, 8.96, 2.21, 1.82, 8.27, repro,
1999-09-22,0.12, 3.38, -2.76, 2.35, 1.96, 8.91, repro,
1999-09-23,-0.39, -0.00, 6.24, 2.21, 1.89, 8.32, repro,
1999-09-24,2.06, 0.37, 6.44, 2.23, 1.89, 8.36, repro,
1999-09-25,0.01, 1.02, 19.25, 2.13, 1.85, 8.13, repro,
1999-09-26,-0.71, 0.98, 11.21, 2.45, 2.22, 9.39, repro,
1999-09-27,1.14, 1.03, 10.73, 2.34, 2.00, 8.99, repro,
1999-09-28,2.11, 0.31, 5.81, 2.42, 2.12, 9.07, repro,
1999-09-29,1.91, 0.35, 4.65, 2.58, 2.31, 9.66, repro,
1999-09-30,0.58, 0.70, 9.33, 2.74, 2.39, 10.17, repro,
1999-10-01,-0.55, 1.52, 11.47, 2.68, 2.30, 10.30, repro,
1999-10-02,0.04, 1.15, 7.86, 2.28, 2.03, 8.79, repro,
1999-10-03,1.71, -0.31, 4.14, 2.27, 1.96, 8.56, repro,
1999-10-04,0.77, 0.48, 2.42, 2.24, 1.98, 8.49, repro,
1999-10-05,0.54, -0.38, 8.53, 2.29, 1.95, 8.47, repro,
1999-10-06,0.69, 0.10, 12.55, 2.23, 1.97, 8.48, repro,
1999-10-07,0.10, 1.67, 9.75, 2.28, 1.88, 8.61, repro,
1999-10-08,-0.21, 1.15, 8.32, 2.28, 1.91, 8.36, repro,
1999-10-09,1.58, 0.71, 5.65, 2.25, 1.91, 8.40, repro,
1999-10-10,0.54, 1.13, 7.69, 2.27, 1.90, 8.53, repro,
1999-10-11,-0.71, 1.59, 3.70, 2.21, 1.89, 8.29, repro,
1999-10-12,-2.34, 0.37, 9.91, 2.26, 1.93, 8.42, repro,
1999-10-13,-0.82, 0.18, 4.89, 2.36, 2.01, 8.73, repro,
1999-10-14,-0.32, 0.87, 6.61, 2.28, 1.99, 8.43, repro,
1999-10-15,0.80, 0.64, 7.70, 2.23, 1.90, 8.37, repro,
1999-10-16,-8.51, 13.00, 30.29, 2.14, 1.86, 8.24, repro,
1999-10-17,0.89, -2.24, 17.36, 2.23, 1.85, 8.61, repro,
1999-10-18,-0.48, -3.46, 14.27, 2.37, 1.94, 8.89, repro,
1999-10-19,1.41, -2.78, 12.70, 2.26, 1.81, 8.58, repro,
1999-10-20,1.46, -2.96, 10.90, 2.12, 1.87, 8.17, repro,
1999-10-21,2.33, -3.24, 7.76, 2.19, 1.90, 8.56, repro,
1999-10-22,0.89, -4.03, 15.99, 2.08, 1.81, 8.08, repro,
1999-10-23,1.28, -3.73, 9.20, 2.12, 1.89, 8.25, repro,
1999-10-24,0.22, -3.39, 10.97, 2.20, 1.92, 8.59, repro,
1999-10-25,1.55, -3.60, 8.13, 2.12, 1.88, 8.19, repro,
1999-10-26,1.83, -4.21, 20.54, 2.05, 1.78, 7.95, repro,
1999-10-27,1.38, -5.32, 16.74, 2.15, 1.83, 8.38, repro,
1999-10-28,3.88, -6.63, 18.52, 2.17, 1.87, 8.21, repro,
1999-10-29,3.74, -4.10, 16.91, 2.24, 1.96, 8.50, repro,
1999-10-30,2.00, -3.38, 6.63, 2.08, 1.82, 8.06, repro,
1999-10-31,2.22, -4.66, 11.33, 2.28, 1.91, 8.57, repro,
1999-11-01,1.72, -5.06, 7.83, 2.45, 2.04, 9.27, repro,
1999-11-02,2.65, -5.10, 15.09, 2.18, 1.85, 8.18, repro,
1999-11-03,2.20, -4.41, 13.52, 2.20, 1.85, 8.30, repro,
1999-11-04,2.60, -4.33, 12.65, 2.24, 1.86, 8.39, repro,
1999-11-05,2.03, -4.54, 12.31, 2.15, 1.81, 8.20, repro,
1999-11-06,1.37, -4.24, 11.37, 2.17, 1.83, 8.28, repro,
1999-11-07,2.28, -4.12, 13.63, 2.22, 1.86, 8.38, repro,
1999-11-08,1.26, -6.70, 18.20, 2.14, 1.85, 8.24, repro,
1999-11-09,2.06, -5.85, 18.95, 2.11, 1.81, 8.03, repro,
1999-11-10,1.13, -5.16, 13.52, 2.11, 1.77, 8.17, repro,
1999-11-11,1.80, -5.25, 10.63, 2.07, 1.76, 7.96, repro,
1999-11-12,1.90, -5.04, 13.55, 2.12, 1.82, 8.08, repro,
1999-11-13,1.35, -6.55, 18.55, 2.21, 1.86, 8.34, repro,
1999-11-14,1.49, -6.77, 18.81, 2.08, 1.79, 8.02, repro,
1999-11-15,1.88, -4.89, 6.07, 2.12, 1.78, 8.20, repro,
1999-11-16,1.46, -5.83, 13.70, 2.15, 1.87, 8.25, repro,
1999-11-17,-0.66, -5.45, 20.10, 2.12, 1.82, 8.15, repro,
1999-11-18,1.66, -5.84, 18.87, 2.17, 1.85, 8.30, repro,
1999-11-19,0.79, -6.72, 16.66, 2.20, 1.93, 8.39, repro,
1999-11-20,0.31, -7.94, 20.74, 2.21, 1.92, 8.39, repro,
1999-11-21,1.37, -7.72, 14.01, 2.42, 2.08, 9.26, repro,
1999-11-22,1.31, -5.79, 9.29, 2.30, 1.95, 8.56, repro,
1999-11-23,1.46, -6.42, 9.90, 2.48, 2.25, 9.77, repro,
1999-11-24,0.27, -5.55, 8.05, 2.58, 2.45, 10.50, repro,
1999-11-25,2.05, -5.84, 16.17, 2.34, 2.05, 9.07, repro,
1999-11-26,1.86, -6.11, 12.07, 2.22, 2.15, 8.76, repro,
1999-11-27,1.99, -5.86, 13.09, 2.05, 1.79, 7.99, repro,
1999-11-28,2.60, -5.48, 8.50, 2.09, 1.88, 8.14, repro,
1999-11-29,2.72, -5.92, 6.75, 2.13, 1.88, 8.31, repro,
1999-11-30,1.45, -6.31, 5.22, 2.20, 1.87, 8.35, repro,
1999-12-01,2.99, -6.00, 13.73, 2.31, 2.13, 9.15, repro,
1999-12-02,2.37, -7.31, 8.36, 2.01, 1.77, 7.89, repro,
1999-12-03,2.31, -5.61, 17.51, 2.28, 2.19, 9.04, repro,
1999-12-04,1.80, -6.72, 5.65, 2.23, 2.00, 8.68, repro,
1999-12-05,0.63, -5.92, 4.83, 2.08, 1.93, 8.27, repro,
1999-12-06,0.30, -5.87, 11.47, 2.35, 2.16, 9.55, repro,
1999-12-07,1.67, -7.21, 14.18, 2.37, 2.06, 9.33, repro,
1999-12-08,2.04, -5.82, 9.78, 2.71, 2.37, 10.20, repro,
1999-12-09,3.11, -6.47, 14.33, 2.24, 2.13, 8.87, repro,
1999-12-10,1.94, -8.43, 10.24, 2.06, 1.87, 8.07, repro,
1999-12-11,3.09, -7.16, 10.38, 2.25, 2.13, 9.12, repro,
1999-12-12,2.21, -7.49, 13.48, 2.31, 2.13, 9.10, repro,
1999-12-13,2.73, -6.71, 11.54, 2.34, 2.25, 9.13, repro,
1999-12-14,0.67, -6.55, 7.38, 2.39, 2.05, 9.05, repro,
1999-12-15,1.97, -6.37, 1.72, 2.34, 2.07, 9.49, repro,
1999-12-16,2.45, -7.55, 11.11, 2.29, 2.02, 9.02, repro,
1999-12-17,1.67, -7.57, 5.91, 2.42, 2.19, 9.39, repro,
1999-12-18,3.41, -9.25, 5.21, 2.44, 2.13, 9.51, repro,
1999-12-19,3.50, -7.65, 2.59, 2.09, 1.94, 8.30, repro,
1999-12-20,1.94, -7.95, 12.17, 2.16, 1.90, 8.40, repro,
1999-12-21,1.94, -8.02, 9.41, 2.38, 1.94, 9.11, repro,
1999-12-22,1.80, -8.17, 12.12, 2.33, 1.99, 9.15, repro,
1999-12-23,2.33, -7.36, 1.13, 2.38, 2.23, 9.42, repro,
1999-12-24,1.27, -6.73, -3.00, 2.46, 2.32, 10.29, repro,
1999-12-25,3.10, -6.06, -6.11, 2.09, 1.84, 8.16, repro,
1999-12-26,2.49, -7.65, 1.98, 2.13, 2.00, 8.57, repro,
1999-12-27,1.42, -5.92, -5.93, 2.12, 1.80, 8.26, repro,
1999-12-28,2.26, -6.90, 1.00, 2.30, 1.91, 9.22, repro,
1999-12-29,0.72, -6.78, 3.13, 2.23, 1.92, 8.77, repro,
1999-12-30,2.55, -6.64, 10.52, 2.09, 1.86, 8.29, repro,
1999-12-31,2.35, -7.79, 11.90, 2.23, 1.86, 8.68, repro,
2000-01-01,2.38, -7.48, 9.03, 2.39, 2.12, 9.53, repro,
2000-01-02,0.39, -8.01, 8.69, 2.01, 1.78, 7.88, repro,
2000-01-03,1.70, -6.57, 3.91, 2.07, 1.79, 8.06, repro,
2000-01-04,3.13, -6.47, -0.64, 2.22, 1.78, 8.40, repro,
2000-01-05,3.35, -8.40, 9.14, 2.01, 1.74, 7.75, repro,
2000-01-06,4.95, -6.25, 0.89, 2.05, 1.77, 8.01, repro,
2000-01-07,3.19, -6.58, -4.36, 2.08, 1.85, 8.22, repro,